This demonstration page uses our WeatherBlox Daily Observations layout. Learn more.

38.89511, -77.03637

Hourly Observations for October 26, 2018

Temp ( °F °C ) Dew Point ( °F °C ) Humidity (%) Winds ( mph kmh ) Pressure ( in mb ) Visibility ( mi km ) Precip ( " mm )
12:52 am 00:52 Cloudy 48 8.9 40 4.4 74 74 SSW 5 7 30.12 1020 10 16.0934 0 0
1:52 am 01:52 Cloudy 49 9.4 40 4.4 71 71 Calm 30.11 1020 10 16.0934 0 0
2:52 am 02:52 Cloudy 48 8.9 42 5.6 80 80 Calm 30.11 1020 10 16.0934 0 0
3:52 am 03:52 Cloudy 48 8.9 40 4.4 74 74 NE 5 7 30.1 1019 10 16.0934 0 0
4:52 am 04:52 Cloudy 47 8.3 40 4.4 77 77 NE 6 9 30.1 1019 10 16.0934 0 0
5:52 am 05:52 Cloudy 45 7.2 40 4.4 83 83 NNE 3 6 30.11 1020 10 16.0934 0 0
6:52 am 06:52 Cloudy 45 7.2 38 3.3 77 77 NE 9 15 30.11 1020 10 16.0934 0 0
7:52 am 07:52 Cloudy 45 7.2 38 3.3 77 77 NE 9 15 30.11 1020 10 16.0934 0 0
8:52 am 08:52 Cloudy 46 7.8 38 3.3 73 73 NNE 6 9 30.13 1020 10 16.0934 0 0
9:52 am 09:52 Cloudy 47 8.3 37 2.8 69 69 NE 7 11 30.13 1020 10 16.0934 0 0
10:52 am 10:52 Cloudy 49 9.4 39 3.9 69 69 ENE 10 17 30.11 1020 10 16.0934 0 0
11:52 am 11:52 Cloudy 49 9.4 39 3.9 69 69 E 8 13 30.12 1020 10 16.0934 0 0
12:52 pm 12:52 Cloudy 50 10 40 4.4 68 68 ESE 8 13 30.1 1019 10 16.0934 0 0
1:52 pm 13:52 Cloudy 50 10 40 4.4 68 68 ESE 7 11 30.07 1018 10 16.0934 0 0
2:52 pm 14:52 Cloudy with Light Rain 50 10 42 5.6 74 74 ENE 9 15 30.03 1017 10 16.0934 0 0.0254
3:52 pm 15:52 Cloudy with Light Rain 50 10 42 5.6 74 74 E 15 24 29.99 1016 10 16.0934 0 0.0254
4:52 pm 16:52 Cloudy with Light Rain 50 10 41 5 71 71 ENE 9 15 29.98 1015 10 16.0934 0 0.0254
5:52 pm 17:52 Cloudy with Light Rain 49 9.4 43 6.1 80 80 ENE 12 19 29.94 1014 10 16.0934 0.03 0.762
6:52 pm 18:52 Cloudy with Rain 48 8.9 43 6.1 83 83 NE 10 17 29.93 1014 9 14.48406 0.03 0.762
7:03 pm 19:03 Cloudy with Rain 48 8.9 43 6.1 83 83 ENE 9 15 29.94 1014 7 11.26538 0.02 0.508
7:33 pm 19:33 Cloudy with Rain 48 8.9 44 6.7 86 86 E 10 17 29.91 1013 7 11.26538 0.08 2.032
7:52 pm 19:52 Cloudy with Rain 48 8.9 44 6.7 86 86 NE 15 24 29.92 1013 6 9.65604 0.15 3.81
7:58 pm 19:58 Cloudy with Rain 48 8.9 44 6.7 86 86 NE 13 20 29.91 1013 6 9.65604 0.01 0.254
8:01 pm 20:01 Cloudy with Light Rain 48 8.9 44 6.7 86 86 NE 12 19 29.94 1014 7 11.26538 0.02 0.508
8:52 pm 20:52 Cloudy with Light Rain 48 8.9 45 7.2 89 89 NE 12 19 29.9 1013 10 16.0934 0.06 1.524
9:52 pm 21:52 Cloudy with Heavy Rain 48 8.9 45 7.2 89 89 NE 12 19 29.87 1012 4 6.43736 0.11 2.794
10:13 pm 22:13 Cloudy with Heavy Rain 48 8.9 45 7.2 89 89 NNE 16 26 29.85 1011 4 6.43736 0.09 2.286
10:18 pm 22:18 Cloudy with Rain 48 8.9 45 7.2 89 89 NE 15 24 29.83 1010 4 6.43736 0.11 2.794
10:34 pm 22:34 Cloudy with Rain 48 8.9 45 7.2 89 89 NE 17 28 29.83 1010 6 9.65604 0.15 3.81
10:39 pm 22:39 Cloudy with Rain 48 8.9 45 7.2 89 89 ENE 18 30 29.83 1010 6 9.65604 0.16 4.064
10:52 pm 22:52 Cloudy with Light Rain 49 9.4 45 7.2 86 86 ENE 18 30 29.8 1009 8 12.87472 0.18 4.572
11:19 pm 23:19 Cloudy with Heavy Rain 49 9.4 46 7.8 90 90 NE 10 17 29.83 1010 5 8.0467 0.04 1.016
11:26 pm 23:26 Cloudy with Rain 49 9.4 46 7.8 90 90 NNE 8 13 29.83 1010 5 8.0467 0.05 1.27
11:45 pm 23:45 Cloudy with Rain 49 9.4 46 7.8 90 90 NNE 12 19 29.8 1009 4 6.43736 0.09 2.286
11:52 pm 23:52 Cloudy with Rain 49 9.4 47 8.3 93 93 N 9 15 29.8 1009 4 6.43736 0.11 2.794

Powered by AerisWeather